Regional Weather Roundup
Issued by NWS

Home | Current Version | Previous Version | Text Only | Print | Product List | Glossary On
Versions: 1 2 3 4 5 6 7 8 9 10 11 12 13 14 15 16 17 18 19 20 21 22 23 24 25 26 27 28 29 30 31 32 33 34 35 36 37 38 39 40 41 42 43 44 45 46 47 48 49 50
000
ASUS45 KREV 172010
RWRNV
NEVADA REGIONAL WEATHER ROUNDUP
NATIONAL WEATHER SERVICE RENO NV
1200 PM PST WED JAN 17 2018

NOTE: "FAIR" INDICATES FEW OR NO CLOUDS BELOW 12,000 FEET WITH NO
SIGNIFICANT WEATHER AND/OR OBSTRUCTIONS TO VISIBILITY.

NVZ001-003-004-172100-
WESTERN NEVADA

CITY           SKY/WX    TMP DP  RH WIND       PRES   REMARKS
RENO           CLOUDY    48  34  58 CALM      30.31F
CARSON CITY    FAIR      46  32  57 W3        30.34F
MINDEN         FAIR      46  36  66 NW3       30.34F
SLIDE MTN        N/A     37  32  81 W18         N/A
FALLON         PTSUNNY   49  23  36 E8        30.32F
LOVELOCK       PTSUNNY   46  37  71 N3        30.33F
HAWTHORNE      SUNNY     50  28  43 NW7       30.34S
$$

NVZ002-CAZ072-073-172100-
NORTHERN AND CENTRAL SIERRA

CITY           SKY/WX    TMP DP  RH WIND       PRES   REMARKS
S. LAKE TAHOE  PTSUNNY   55  34  45 S7        30.35F
TRUCKEE        PTSUNNY   46  39  76 CALM      30.34
SQUAW VLY 8000   N/A     43  34  70 S9          N/A
SUSANVILLE     SUNNY     46  39  76 CALM      30.31F
BLUE CANYON    PTSUNNY   55  37  50 VRB7      30.33F
MAMMOTH LAKES  FAIR      51  26  37 CALM      30.38F
$$

NVZ030-031-036-172100-
NORTHERN NEVADA

CITY           SKY/WX    TMP DP  RH WIND       PRES   REMARKS
ELKO           CLOUDY    38  30  73 CALM      30.35S
WINNEMUCCA     CLOUDY    48  34  58 CALM      30.33F
WENDOVER       SUNNY     41  29  62 E6        30.38F
$$

NVZ035-037-172100-
CENTRAL NEVADA

CITY           SKY/WX    TMP DP  RH WIND       PRES   REMARKS
ELY            MOSUNNY   50  28  42 NE3       30.32F
EUREKA           N/A     44  32  62 N6        30.32F
$$

NVZ013-014-172100-
SOUTH CENTRAL NEVADA

CITY           SKY/WX    TMP DP  RH WIND       PRES   REMARKS
TONOPAH        CLOUDY    48  30  49 CALM      30.33F
$$

NVZ017-020-022-172100-
SOUTHERN NEVADA

CITY           SKY/WX    TMP DP  RH WIND       PRES   REMARKS
LAS VEGAS      MOSUNNY   63  33  32 CALM      30.26F
N. LAS VEGAS   SUNNY     62  34  35 CALM      30.26F
NELLIS AFB     PTSUNNY   64  33  30 CALM      30.27F
HENDERSON      SUNNY     61  33  35 CALM      30.28F
MERCURY        SUNNY     63  32  31 SE8       30.26
$$



USA.gov is the U.S. government's official web portal to all federal, state and local government web resources and services.